Regional Weather Roundup
Issued by NWS Northern Indiana

Home | Current Version | Previous Version | Text Only | Print | Product List | Glossary Off
Versions: 1 2 3 4 5 6 7 8 9 10 11 12 13 14 15 16 17 18 19 20 21 22 23 24 25 26 27 28 29 30 31 32 33 34 35 36 37 38 39 40 41 42 43 44 45 46 47 48 49 50

000
ASUS43 KIWX 290110
RWRIWX

KIWX WEATHER ROUNDUP
NATIONAL WEATHER SERVICE NORTHERN INDIANA
900 PM EDT SUN MAY 28 2017

NOTE: "FAIR" INDICATES FEW OR NO CLOUDS BELOW 12,000 FEET WITH NO
SIGNIFICANT WEATHER AND/OR OBSTRUCTIONS TO VISIBILITY.

* THESE STATIONS ARE NOT UNDER NWS QUALITY CONTROL. THEY ALSO MAY NOT
  REPORT WEATHER SUCH AS PRECIPITATION OR FOG.

INZ001>027-290200-
NORTHERN INDIANA

CITY           SKY/WX    TMP DP  RH WIND       PRES   REMARKS
GARY*          PTCLDY    73  48  40 VRB7      29.76R
VALPARAISO     CLEAR     71  59  65 W3        29.77R
MICHIGAN CITY* CLEAR     63  55  77 CALM      29.77R
LAPORTE*       CLEAR     67  57  71 CALM      29.77R
KNOX*          CLEAR     66  48  52 NW3       29.77R
SOUTH BEND     CLEAR     63  56  78 W7        29.77R
GOSHEN         CLEAR     66  53  63 NW10      29.76R
MONTICELLO*    CLEAR     69  55  60 W7        29.77R
LOGANSPORT*    CLEAR     70  57  64 NW5       29.78R
ROCHESTER*     CLEAR     70  59  68 NW3       29.77R
WARSAW*        CLEAR     64  55  72 NW7       29.77R
ANGOLA*        MOCLDY    70  63  78 NW13      29.74R
FORT WAYNE     CLOUDY    62  60  93 VRB5      29.77R THUNDER
HUNTINGTON*    LGT RAIN  61  60  96 CALM      29.73R
PERU/GRISSOM   PTCLDY    70  65  83 NW9       29.76R

$$
INZ028>050-290200-
CENTRAL INDIANA

CITY           SKY/WX    TMP DP  RH WIND       PRES   REMARKS
LAFAYETTE      CLEAR     69  54  58 W8        29.78R
KOKOMO*        PTCLDY    68  63  84 W8        29.78R
MUNCIE*        CLOUDY    70  64  81 SW12      29.78R
INDIANAPOLIS   CLOUDY    66  64  93 SW9       29.80R

$$
MIZ043>046-050>051-056>058-064>065-071>073-077>080-290200-
SOUTHWEST LOWER MICHIGAN

CITY           SKY/WX    TMP DP  RH WIND       PRES   REMARKS
BATTLE CREEK   CLEAR     67  57  70 W8        29.73R
BENTON HARBOR  CLEAR     62  57  83 W3        29.75R
COLDWATER*     PTCLDY    67  58  72 W12       29.74R
HILLSDALE*     CLOUDY    68  63  83 W6        29.71S
HOLLAND        CLEAR     62  55  77 W5        29.74R
GRAND RAPIDS   PTCLDY    66  51  58 W10       29.72R
KALAMAZOO      CLEAR     65  53  65 W8        29.75R
STURGIS*       CLOUDY    66  56  70 NW5       29.75R
THREE RIVERS*  FAIR      65  55  70 W9        29.75R

$$
OHZ001>008-015>018-024>025-290200-
NORTHWEST OHIO

CITY           SKY/WX    TMP DP  RH WIND       PRES   REMARKS
WAUSEON*       LGT RAIN  66  66 100 SW10      29.70F
DEFIANCE       LGT RAIN  64  62  93 S9        29.73R
FINDLAY        CLOUDY    62  58  86 S8        29.74R
TOLEDO EXPRESS CLOUDY    63  62  97 S6        29.70R
TOLEDO METCALF CLOUDY    62  60  93 SE8       29.72R
LIMA           TSTM      62  60  93 S6        29.75S

$$
AND FOR LAKE MICHIGAN COASTAL AND OPEN LAKE BUOY OBSERVATIONS

STATION/POSITION TEMP    WIND        PRES    VSBY  WAVE
                 AIR SEA DIR/SP/G                  HT/PER
                 (F)     (DEG/KT/KT) (MB)    (MI)  (FT/S)
CALUMET HARBOR    73     240/  6/  9 1006.8F
MICHIGAN CITY     59     200/  4/  4   N/A
BURNS HARBOR      66      CALM  /  1 1008.1R
SOUTH LAKE BUOY   52 50  190/ 10/ 10 1006.6F         0
4 MI NW BRIDGMAN  59 60  220/  6/  8 1007.9          1
MICHIGAN CITY     58 57  180/  2/  4   N/A           1

$$
&&




USA.gov is the U.S. government's official web portal to all federal, state and local government web resources and services.